Time,TemperatureF,DewpointF,PressureIn,WindDirection,WindDirectionDegrees,WindSpeedMPH,WindSpeedGustMPH,Humidity,HourlyPrecipIn,Conditions,Clouds,dailyrainin,SolarRadiationWatts/m^2,SoftwareType,DateUTC
2013-01-12 00:01:00,44.4,39.9,30.14,WSW,248,0.0,0.0,84,0.00,CLR,,0.00,0.0,WeatherDisplay:10.37,2013-01-12 08:01:00,
2013-01-12 00:06:00,44.2,39.7,30.14,WSW,248,0.0,0.0,84,0.00,CLR,,0.00,0.0,WeatherDisplay:10.37,2013-01-12 08:06:00,
2013-01-12 00:11:00,44.2,39.7,30.14,WSW,248,0.0,0.0,84,0.00,CLR,,0.00,0.0,WeatherDisplay:10.37,2013-01-12 08:11:00,
2013-01-12 00:16:00,44.1,39.5,30.14,WSW,248,0.0,0.0,84,0.00,CLR,,0.00,0.0,WeatherDisplay:10.37,2013-01-12 08:16:00,
2013-01-12 00:21:00,43.9,39.4,30.14,WSW,248,0.0,0.0,84,0.00,CLR,,0.00,0.0,WeatherDisplay:10.37,2013-01-12 08:21:00,
2013-01-12 00:26:00,43.5,39.0,30.14,WSW,248,0.0,0.0,84,0.00,CLR,,0.00,0.0,WeatherDisplay:10.37,2013-01-12 08:26:00,
2013-01-12 00:31:00,43.3,38.8,30.14,WSW,248,0.0,0.0,84,0.00,CLR,,0.00,0.0,WeatherDisplay:10.37,2013-01-12 08:31:00,
2013-01-12 00:36:00,43.3,38.8,30.14,WSW,248,0.0,0.0,84,0.00,CLR,,0.00,0.0,WeatherDisplay:10.37,2013-01-12 08:36:00,
2013-01-12 00:41:00,43.0,38.5,30.14,WSW,248,0.0,0.0,84,0.00,CLR,,0.00,0.0,WeatherDisplay:10.37,2013-01-12 08:41:00,
2013-01-12 00:47:00,43.0,38.5,30.14,WSW,248,0.0,0.0,84,0.00,CLR,,0.00,0.0,WeatherDisplay:10.37,2013-01-12 08:47:00,
2013-01-12 00:52:00,42.8,38.3,30.14,WSW,248,0.0,0.0,84,0.00,CLR,,0.00,0.0,WeatherDisplay:10.37,2013-01-12 08:52:00,
2013-01-12 00:57:00,42.8,38.3,30.14,WSW,248,0.0,0.0,84,0.00,CLR,,0.00,0.0,WeatherDisplay:10.37,2013-01-12 08:57:00,
2013-01-12 01:02:00,43.0,38.8,30.14,WSW,248,0.0,0.0,85,0.00,CLR,,0.00,0.0,WeatherDisplay:10.37,2013-01-12 09:02:00,
2013-01-12 01:08:00,43.3,39.1,30.16,WSW,248,0.0,0.0,85,0.00,CLR,,0.00,0.0,WeatherDisplay:10.37,2013-01-12 09:08:00,
2013-01-12 01:13:00,43.3,39.1,30.16,WSW,248,0.0,0.0,85,0.00,CLR,,0.00,0.0,WeatherDisplay:10.37,2013-01-12 09:13:00,
2013-01-12 01:18:00,43.3,39.4,30.16,WSW,248,0.0,0.0,86,0.00,CLR,,0.00,0.0,WeatherDisplay:10.37,2013-01-12 09:18:00,
2013-01-12 01:23:00,43.3,39.4,30.16,WSW,248,0.0,0.0,86,0.00,CLR,,0.00,0.0,WeatherDisplay:10.37,2013-01-12 09:23:00,
2013-01-12 01:28:00,43.3,39.4,30.15,WSW,248,0.0,0.0,86,0.00,CLR,,0.00,0.0,WeatherDisplay:10.37,2013-01-12 09:28:00,
2013-01-12 01:33:00,43.2,39.3,30.15,WSW,248,0.0,0.0,86,0.00,CLR,,0.00,0.0,WeatherDisplay:10.37,2013-01-12 09:33:00,
2013-01-12 01:39:00,43.3,39.4,30.15,WSW,248,0.0,0.0,86,0.00,CLR,,0.00,0.0,WeatherDisplay:10.37,2013-01-12 09:39:00,
2013-01-12 01:44:00,43.3,39.4,30.15,WSW,248,0.0,0.0,86,0.00,CLR,,0.00,0.0,WeatherDisplay:10.37,2013-01-12 09:44:00,
2013-01-12 01:49:00,43.7,39.8,30.15,WSW,248,0.0,0.0,86,0.00,CLR,,0.00,0.0,WeatherDisplay:10.37,2013-01-12 09:49:00,
2013-01-12 01:54:00,43.7,39.5,30.15,WSW,248,0.0,0.0,85,0.00,CLR,,0.00,0.0,WeatherDisplay:10.37,2013-01-12 09:54:00,
2013-01-12 01:59:00,43.7,39.5,30.15,WSW,248,0.0,0.0,85,0.00,CLR,,0.00,0.0,WeatherDisplay:10.37,2013-01-12 09:59:00,
2013-01-12 02:05:00,43.7,39.5,30.15,WSW,248,0.0,0.0,85,0.00,CLR,,0.00,0.0,WeatherDisplay:10.37,2013-01-12 10:05:00,
2013-01-12 02:10:00,43.5,39.3,30.15,WSW,248,0.0,0.0,85,0.00,CLR,,0.00,0.0,WeatherDisplay:10.37,2013-01-12 10:10:00,
2013-01-12 02:15:00,43.3,38.8,30.15,WSW,248,0.0,0.0,84,0.00,CLR,,0.00,0.0,WeatherDisplay:10.37,2013-01-12 10:15:00,
2013-01-12 02:20:00,43.3,38.8,30.15,WSW,248,0.0,0.0,84,0.00,CLR,,0.00,0.0,WeatherDisplay:10.37,2013-01-12 10:20:00,
2013-01-12 02:25:00,43.3,38.8,30.15,WSW,248,0.0,0.0,84,0.00,CLR,,0.00,0.0,WeatherDisplay:10.37,2013-01-12 10:25:00,
2013-01-12 02:30:00,43.3,38.8,30.17,WSW,248,0.0,0.0,84,0.00,CLR,,0.00,0.0,WeatherDisplay:10.37,2013-01-12 10:30:00,
2013-01-12 02:35:00,43.0,38.5,30.17,WSW,248,0.0,0.0,84,0.00,CLR,,0.00,0.0,WeatherDisplay:10.37,2013-01-12 10:35:00,
2013-01-12 02:40:00,43.0,38.5,30.17,WSW,248,0.0,0.0,84,0.00,CLR,,0.00,0.0,WeatherDisplay:10.37,2013-01-12 10:40:00,
2013-01-12 02:46:00,43.0,38.5,30.16,WSW,248,0.0,0.0,84,0.00,CLR,,0.00,0.0,WeatherDisplay:10.37,2013-01-12 10:46:00,
2013-01-12 02:51:00,43.0,38.5,30.16,WSW,248,0.0,0.0,84,0.00,CLR,,0.00,0.0,WeatherDisplay:10.37,2013-01-12 10:51:00,
2013-01-12 02:56:00,43.0,38.5,30.16,WSW,248,0.0,0.0,84,0.00,CLR,,0.00,0.0,WeatherDisplay:10.37,2013-01-12 10:56:00,
2013-01-12 03:01:00,42.8,38.3,30.16,WSW,248,0.0,0.0,84,0.00,CLR,,0.00,0.0,WeatherDisplay:10.37,2013-01-12 11:01:00,
2013-01-12 03:07:00,42.8,38.3,30.16,WSW,248,0.0,0.0,84,0.00,CLR,,0.00,0.0,WeatherDisplay:10.37,2013-01-12 11:07:00,
2013-01-12 03:12:00,42.6,38.1,30.16,WSW,248,0.0,0.0,84,0.00,CLR,,0.00,0.0,WeatherDisplay:10.37,2013-01-12 11:12:00,
2013-01-12 03:17:00,42.4,37.9,30.16,WSW,248,0.0,0.0,84,0.00,CLR,,0.00,0.0,WeatherDisplay:10.37,2013-01-12 11:17:00,
2013-01-12 03:22:00,42.3,37.8,30.16,WSW,248,0.0,0.0,84,0.00,CLR,,0.00,0.0,WeatherDisplay:10.37,2013-01-12 11:22:00,
2013-01-12 03:27:00,42.1,37.6,30.16,WSW,248,0.0,0.0,84,0.00,CLR,,0.00,0.0,WeatherDisplay:10.37,2013-01-12 11:27:00,
2013-01-12 03:32:00,42.1,37.6,30.16,WSW,248,0.0,0.0,84,0.00,CLR,,0.00,0.0,WeatherDisplay:10.37,2013-01-12 11:32:00,
2013-01-12 03:38:00,41.9,37.4,30.16,WSW,248,0.0,0.0,84,0.00,CLR,,0.00,0.0,WeatherDisplay:10.37,2013-01-12 11:38:00,
2013-01-12 03:43:00,41.9,37.4,30.16,WSW,248,0.0,0.0,84,0.00,CLR,,0.00,0.0,WeatherDisplay:10.37,2013-01-12 11:43:00,
2013-01-12 03:48:00,41.5,37.1,30.16,WSW,248,0.0,0.0,84,0.00,CLR,,0.00,0.0,WeatherDisplay:10.37,2013-01-12 11:48:00,
2013-01-12 03:53:00,41.5,37.1,30.16,WSW,248,0.0,0.0,84,0.00,CLR,,0.00,0.0,WeatherDisplay:10.37,2013-01-12 11:53:00,
2013-01-12 03:58:00,41.4,36.9,30.16,WSW,248,0.0,0.0,84,0.00,CLR,,0.00,0.0,WeatherDisplay:10.37,2013-01-12 11:58:00,
2013-01-12 04:03:00,41.2,36.7,30.16,WSW,248,0.0,0.0,84,0.00,CLR,,0.00,0.0,WeatherDisplay:10.37,2013-01-12 12:03:00,
2013-01-12 04:08:00,41.0,36.5,30.17,WSW,248,0.0,0.0,84,0.00,CLR,,0.00,0.0,WeatherDisplay:10.37,2013-01-12 12:08:00,
2013-01-12 04:13:00,41.2,36.7,30.17,WSW,248,0.0,0.0,84,0.00,CLR,,0.00,0.0,WeatherDisplay:10.37,2013-01-12 12:13:00,
2013-01-12 04:18:00,40.8,36.1,30.17,WSW,248,0.0,0.0,83,0.00,CLR,,0.00,0.0,WeatherDisplay:10.37,2013-01-12 12:18:00,
2013-01-12 04:23:00,40.8,36.1,30.17,WSW,248,0.0,0.0,83,0.00,CLR,,0.00,0.0,WeatherDisplay:10.37,2013-01-12 12:23:00,
2013-01-12 04:28:00,40.6,36.2,30.17,WSW,248,0.0,0.0,84,0.00,CLR,,0.00,0.0,WeatherDisplay:10.37,2013-01-12 12:28:00,
2013-01-12 04:33:00,40.6,36.5,30.17,WSW,248,0.0,0.0,85,0.00,CLR,,0.00,0.0,WeatherDisplay:10.37,2013-01-12 12:33:00,
2013-01-12 04:38:00,40.6,36.5,30.17,WSW,248,0.0,0.0,85,0.00,CLR,,0.00,0.0,WeatherDisplay:10.37,2013-01-12 12:38:00,
2013-01-12 04:43:00,40.6,36.5,30.17,WSW,248,0.0,0.0,85,0.00,CLR,,0.00,0.0,WeatherDisplay:10.37,2013-01-12 12:43:00,
2013-01-12 04:49:00,40.8,36.7,30.17,WSW,248,0.0,0.0,85,0.00,CLR,,0.00,0.0,WeatherDisplay:10.37,2013-01-12 12:49:00,
2013-01-12 04:54:00,40.6,36.5,30.17,WSW,248,0.0,0.0,85,0.00,CLR,,0.00,0.0,WeatherDisplay:10.37,2013-01-12 12:54:00,
2013-01-12 04:59:00,40.8,36.7,30.17,WSW,248,0.0,0.0,85,0.00,CLR,,0.00,0.0,WeatherDisplay:10.37,2013-01-12 12:59:00,
2013-01-12 05:04:00,40.6,36.2,30.17,WSW,248,0.0,0.0,84,0.00,CLR,,0.00,0.0,WeatherDisplay:10.37,2013-01-12 13:04:00,
2013-01-12 05:09:00,40.6,36.5,30.17,WSW,248,0.0,0.0,85,0.00,CLR,,0.00,0.0,WeatherDisplay:10.37,2013-01-12 13:09:00,
2013-01-12 05:14:00,40.6,36.2,30.17,WSW,248,0.0,0.0,84,0.00,CLR,,0.00,0.0,WeatherDisplay:10.37,2013-01-12 13:14:00,
2013-01-12 05:19:00,40.8,36.4,30.17,WSW,248,0.0,0.0,84,0.00,CLR,,0.00,0.0,WeatherDisplay:10.37,2013-01-12 13:19:00,
2013-01-12 05:24:00,40.8,36.4,30.17,WSW,248,0.0,0.0,84,0.00,CLR,,0.00,0.0,WeatherDisplay:10.37,2013-01-12 13:24:00,
2013-01-12 05:30:00,40.6,36.2,30.18,WSW,248,0.0,0.0,84,0.00,CLR,,0.00,0.0,WeatherDisplay:10.37,2013-01-12 13:30:00,
2013-01-12 05:35:00,40.8,36.4,30.18,WSW,248,0.0,0.0,84,0.00,CLR,,0.00,0.0,WeatherDisplay:10.37,2013-01-12 13:35:00,
2013-01-12 05:40:00,40.6,36.2,30.18,WSW,248,0.0,0.0,84,0.00,CLR,,0.00,0.0,WeatherDisplay:10.37,2013-01-12 13:40:00,
2013-01-12 05:45:00,40.6,36.2,30.18,WSW,248,0.0,0.0,84,0.00,CLR,,0.00,0.0,WeatherDisplay:10.37,2013-01-12 13:45:00,
2013-01-12 05:50:00,40.5,35.7,30.18,WSW,248,0.0,0.0,83,0.00,CLR,,0.00,0.0,WeatherDisplay:10.37,2013-01-12 13:50:00,
2013-01-12 05:55:00,40.1,35.4,30.18,WSW,248,0.0,0.0,83,0.00,CLR,,0.00,0.0,WeatherDisplay:10.37,2013-01-12 13:55:00,
2013-01-12 06:00:00,40.5,36.0,30.18,WSW,248,0.0,0.0,84,0.00,CLR,,0.00,0.0,WeatherDisplay:10.37,2013-01-12 14:00:00,
2013-01-12 06:05:00,40.5,36.0,30.18,WSW,248,0.0,0.0,84,0.00,CLR,,0.00,0.0,WeatherDisplay:10.37,2013-01-12 14:05:00,
2013-01-12 06:10:00,40.6,36.8,30.20,WSW,248,0.0,0.0,86,0.00,CLR,,0.00,0.0,WeatherDisplay:10.37,2013-01-12 14:10:00,
2013-01-12 06:16:00,41.0,37.1,30.20,WSW,248,0.0,0.0,86,0.00,CLR,,0.00,0.0,WeatherDisplay:10.37,2013-01-12 14:16:00,
2013-01-12 06:21:00,41.0,37.1,30.20,WSW,248,0.0,0.0,86,0.00,CLR,,0.00,0.0,WeatherDisplay:10.37,2013-01-12 14:21:00,
2013-01-12 06:26:00,40.6,36.8,30.20,WSW,248,0.0,0.0,86,0.00,CLR,,0.00,0.0,WeatherDisplay:10.37,2013-01-12 14:26:00,
2013-01-12 06:31:00,40.6,36.8,30.20,WSW,248,0.0,0.0,86,0.00,CLR,,0.00,0.0,WeatherDisplay:10.37,2013-01-12 14:31:00,
2013-01-12 06:36:00,40.6,36.8,30.20,WSW,248,0.0,0.0,86,0.00,CLR,,0.00,0.0,WeatherDisplay:10.37,2013-01-12 14:36:00,
2013-01-12 06:41:00,40.8,37.0,30.20,WSW,248,0.0,0.0,86,0.00,CLR,,0.00,0.0,WeatherDisplay:10.37,2013-01-12 14:41:00,
2013-01-12 06:47:00,40.8,37.0,30.21,WSW,248,0.0,0.0,86,0.00,CLR,,0.00,0.0,WeatherDisplay:10.37,2013-01-12 14:47:00,
2013-01-12 06:52:00,40.6,36.8,30.21,WSW,248,0.0,0.0,86,0.00,CLR,,0.00,0.0,WeatherDisplay:10.37,2013-01-12 14:52:00,
2013-01-12 06:57:00,40.6,36.8,30.21,WSW,248,0.0,0.0,86,0.00,CLR,,0.00,0.0,WeatherDisplay:10.37,2013-01-12 14:57:00,
2013-01-12 07:02:00,40.5,36.6,30.21,WSW,248,0.0,0.0,86,0.00,OVC,,0.00,0.0,WeatherDisplay:10.37,2013-01-12 15:02:00,
2013-01-12 07:07:00,40.5,36.6,30.22,WSW,248,0.0,0.0,86,0.00,OVC,,0.00,0.0,WeatherDisplay:10.37,2013-01-12 15:07:00,
2013-01-12 07:13:00,40.1,36.2,30.22,WSW,248,0.0,0.0,86,0.00,OVC,,0.00,0.0,WeatherDisplay:10.37,2013-01-12 15:13:00,
2013-01-12 07:18:00,40.1,36.2,30.22,WSW,248,0.0,0.0,86,0.00,OVC,,0.00,0.0,WeatherDisplay:10.37,2013-01-12 15:18:00,
2013-01-12 07:23:00,39.9,36.1,30.22,WSW,248,0.0,0.0,86,0.00,OVC,,0.00,0.0,WeatherDisplay:10.37,2013-01-12 15:23:00,
2013-01-12 07:28:00,39.9,36.1,30.22,WSW,248,0.0,0.0,86,0.00,OVC,,0.00,0.0,WeatherDisplay:10.37,2013-01-12 15:28:00,
2013-01-12 07:33:00,40.1,36.2,30.22,WSW,248,0.0,0.0,86,0.00,OVC,,0.00,0.0,WeatherDisplay:10.37,2013-01-12 15:33:00,
2013-01-12 07:39:00,40.3,36.1,30.22,WSW,248,0.0,0.0,85,0.00,OVC,,0.00,0.0,WeatherDisplay:10.37,2013-01-12 15:39:00,
2013-01-12 07:44:00,40.3,36.1,30.22,WSW,248,0.0,0.0,85,0.00,OVC,,0.00,0.0,WeatherDisplay:10.37,2013-01-12 15:44:00,
2013-01-12 07:49:00,40.1,35.7,30.23,WSW,248,0.0,0.0,84,0.00,OVC,,0.00,0.0,WeatherDisplay:10.37,2013-01-12 15:49:00,
2013-01-12 07:54:00,40.1,35.7,30.23,WSW,248,0.0,0.0,84,0.00,OVC,,0.00,0.0,WeatherDisplay:10.37,2013-01-12 15:54:00,
2013-01-12 07:59:00,40.3,35.8,30.23,WSW,248,0.0,0.0,84,0.00,OVC,,0.00,0.0,WeatherDisplay:10.37,2013-01-12 15:59:00,
2013-01-12 08:04:00,40.3,35.8,30.23,WSW,248,0.0,0.0,84,0.00,OVC,,0.00,0.0,WeatherDisplay:10.37,2013-01-12 16:04:00,
2013-01-12 08:09:00,40.5,36.0,30.23,WSW,248,0.0,0.0,84,0.00,OVC,,0.00,0.0,WeatherDisplay:10.37,2013-01-12 16:09:00,
2013-01-12 08:14:00,40.8,36.7,30.23,WSW,248,0.0,0.0,85,0.00,OVC,,0.00,0.0,WeatherDisplay:10.37,2013-01-12 16:14:00,
2013-01-12 08:20:00,40.8,36.7,30.23,WSW,248,0.0,0.0,85,0.00,OVC,,0.00,0.0,WeatherDisplay:10.37,2013-01-12 16:20:00,
2013-01-12 08:25:00,41.2,37.0,30.23,WSW,248,0.0,0.0,85,0.00,OVC,,0.00,0.0,WeatherDisplay:10.37,2013-01-12 16:25:00,
2013-01-12 08:30:00,41.2,37.0,30.23,WSW,248,0.0,0.0,85,0.00,OVC,,0.00,0.0,WeatherDisplay:10.37,2013-01-12 16:30:00,
2013-01-12 08:35:00,41.2,36.7,30.23,WSW,248,0.0,0.0,84,0.00,OVC,,0.00,0.0,WeatherDisplay:10.37,2013-01-12 16:35:00,
2013-01-12 08:40:00,41.2,36.7,30.23,WSW,248,0.0,0.0,84,0.00,OVC,,0.00,0.0,WeatherDisplay:10.37,2013-01-12 16:40:00,
2013-01-12 08:45:00,41.4,37.2,30.23,WSW,248,0.0,0.0,85,0.00,OVC,,0.00,0.0,WeatherDisplay:10.37,2013-01-12 16:45:00,
2013-01-12 08:50:00,41.4,37.2,30.24,WSW,248,0.0,0.0,85,0.00,OVC,,0.00,0.0,WeatherDisplay:10.37,2013-01-12 16:50:00,
2013-01-12 08:55:00,41.5,37.4,30.24,WSW,248,0.0,0.0,85,0.00,OVC,,0.00,0.0,WeatherDisplay:10.37,2013-01-12 16:55:00,
2013-01-12 09:00:00,41.9,38.0,30.24,WSW,248,0.0,0.0,86,0.00,OVC,,0.00,0.0,WeatherDisplay:10.37,2013-01-12 17:00:00,
2013-01-12 09:05:00,41.9,37.7,30.24,WSW,248,0.0,0.0,85,0.00,OVC,,0.00,0.0,WeatherDisplay:10.37,2013-01-12 17:05:00,
2013-01-12 09:11:00,42.1,37.9,30.25,WSW,248,0.0,0.0,85,0.00,OVC,,0.00,0.0,WeatherDisplay:10.37,2013-01-12 17:11:00,
2013-01-12 09:16:00,42.3,38.1,30.25,WSW,248,0.0,0.0,85,0.00,OVC,,0.00,0.0,WeatherDisplay:10.37,2013-01-12 17:16:00,
2013-01-12 09:21:00,42.6,38.1,30.25,WSW,248,0.0,0.0,84,0.00,OVC,,0.00,0.0,WeatherDisplay:10.37,2013-01-12 17:21:00,
2013-01-12 09:26:00,42.6,38.1,30.23,WSW,248,0.0,0.0,84,0.00,OVC,,0.00,0.0,WeatherDisplay:10.37,2013-01-12 17:26:00,
2013-01-12 09:31:00,43.0,38.5,30.23,WSW,248,0.0,0.0,84,0.00,OVC,,0.00,0.0,WeatherDisplay:10.37,2013-01-12 17:31:00,
2013-01-12 09:37:00,43.3,38.5,30.23,WSW,248,0.0,0.0,83,0.00,OVC,,0.00,0.0,WeatherDisplay:10.37,2013-01-12 17:37:00,
2013-01-12 09:42:00,43.7,38.6,30.23,WSW,248,0.0,0.0,82,0.00,OVC,,0.00,0.0,WeatherDisplay:10.37,2013-01-12 17:42:00,
2013-01-12 09:47:00,44.4,39.0,30.24,WSW,248,0.0,0.0,81,0.00,OVC,,0.00,0.0,WeatherDisplay:10.37,2013-01-12 17:47:00,
2013-01-12 09:52:00,45.1,39.0,30.24,WSW,248,0.0,0.0,79,0.00,OVC,,0.00,0.0,WeatherDisplay:10.37,2013-01-12 17:52:00,
2013-01-12 09:57:00,45.9,39.4,30.24,WSW,248,0.0,0.0,78,0.00,OVC,,0.00,0.0,WeatherDisplay:10.37,2013-01-12 17:57:00,
2013-01-12 10:03:00,46.0,38.9,30.24,WSW,248,0.0,0.0,76,0.00,OVC,,0.00,0.0,WeatherDisplay:10.37,2013-01-12 18:03:00,
2013-01-12 10:08:00,46.9,39.1,30.24,WSW,248,0.0,0.0,74,0.00,OVC,,0.00,0.0,WeatherDisplay:10.37,2013-01-12 18:08:00,
2013-01-12 10:13:00,47.3,39.1,30.24,WSW,248,0.0,0.0,73,0.00,OVC,,0.00,0.0,WeatherDisplay:10.37,2013-01-12 18:13:00,
2013-01-12 10:18:00,47.7,39.1,30.24,WSW,248,0.0,0.0,72,0.00,OVC,,0.00,0.0,WeatherDisplay:10.37,2013-01-12 18:18:00,
2013-01-12 10:23:00,48.4,39.8,30.24,WSW,248,0.0,0.0,72,0.00,OVC,,0.00,0.0,WeatherDisplay:10.37,2013-01-12 18:23:00,
2013-01-12 10:28:00,48.6,40.3,30.23,WSW,248,0.0,0.0,73,0.00,OVC,,0.00,0.0,WeatherDisplay:10.37,2013-01-12 18:28:00,
2013-01-12 10:33:00,49.1,41.2,30.23,WSW,248,0.0,0.0,74,0.00,OVC,,0.00,0.0,WeatherDisplay:10.37,2013-01-12 18:33:00,
2013-01-12 10:38:00,49.5,41.5,30.23,WSW,248,0.0,0.0,74,0.00,OVC,,0.00,0.0,WeatherDisplay:10.37,2013-01-12 18:38:00,
2013-01-12 10:43:00,49.8,41.9,30.23,WSW,248,0.0,0.0,74,0.00,OVC,,0.00,0.0,WeatherDisplay:10.37,2013-01-12 18:43:00,
2013-01-12 10:49:00,49.8,41.5,30.24,WSW,248,0.0,0.0,73,0.00,OVC,,0.00,0.0,WeatherDisplay:10.37,2013-01-12 18:49:00,
2013-01-12 10:54:00,49.8,41.2,30.24,WSW,248,0.0,0.0,72,0.00,OVC,,0.00,0.0,WeatherDisplay:10.37,2013-01-12 18:54:00,
2013-01-12 10:59:00,49.8,41.2,30.24,WSW,248,0.0,0.0,72,0.00,OVC,,0.00,0.0,WeatherDisplay:10.37,2013-01-12 18:59:00,
2013-01-12 11:04:00,50.0,41.3,30.24,WSW,248,0.0,0.0,72,0.00,OVC,,0.00,0.0,WeatherDisplay:10.37,2013-01-12 19:04:00,
2013-01-12 11:09:00,50.2,41.1,30.22,WSW,248,0.0,0.0,71,0.00,OVC,,0.00,0.0,WeatherDisplay:10.37,2013-01-12 19:09:00,
2013-01-12 11:14:00,50.0,41.0,30.22,WSW,248,0.0,0.0,71,0.00,OVC,,0.00,0.0,WeatherDisplay:10.37,2013-01-12 19:14:00,
2013-01-12 11:19:00,50.5,41.5,30.22,WSW,248,0.0,0.0,71,0.00,OVC,,0.00,0.0,WeatherDisplay:10.37,2013-01-12 19:19:00,
2013-01-12 11:24:00,50.5,41.1,30.22,WSW,248,0.0,0.0,70,0.00,OVC,,0.00,0.0,WeatherDisplay:10.37,2013-01-12 19:24:00,
2013-01-12 11:29:00,50.5,40.7,30.21,WSW,248,0.0,0.0,69,0.00,OVC,,0.00,0.0,WeatherDisplay:10.37,2013-01-12 19:29:00,
2013-01-12 11:34:00,50.5,40.7,30.21,WSW,248,0.0,0.0,69,0.00,OVC,,0.00,0.0,WeatherDisplay:10.37,2013-01-12 19:34:00,
2013-01-12 11:39:00,50.5,40.7,30.21,WSW,248,0.0,0.0,69,0.00,OVC,,0.00,0.0,WeatherDisplay:10.37,2013-01-12 19:39:00,
2013-01-12 11:44:00,50.5,40.7,30.21,WSW,248,0.0,0.0,69,0.00,OVC,,0.00,0.0,WeatherDisplay:10.37,2013-01-12 19:44:00,
2013-01-12 11:49:00,50.7,40.9,30.20,WSW,248,0.0,0.0,69,0.00,OVC,,0.00,0.0,WeatherDisplay:10.37,2013-01-12 19:49:00,
2013-01-12 11:54:00,51.3,41.1,30.20,WSW,248,0.0,0.0,68,0.00,OVC,,0.00,0.0,WeatherDisplay:10.37,2013-01-12 19:54:00,
2013-01-12 11:59:00,51.4,41.2,30.20,WSW,248,0.0,0.0,68,0.00,OVC,,0.00,0.0,WeatherDisplay:10.37,2013-01-12 19:59:00,
2013-01-12 12:04:00,51.4,41.2,30.20,WSW,248,0.0,0.0,68,0.00,OVC,,0.00,0.0,WeatherDisplay:10.37,2013-01-12 20:04:00,
2013-01-12 12:10:00,51.4,41.2,30.19,WSW,248,0.0,0.0,68,0.00,OVC,,0.00,0.0,WeatherDisplay:10.37,2013-01-12 20:10:00,
2013-01-12 12:15:00,51.6,40.6,30.19,WSW,248,0.0,0.0,66,0.00,OVC,,0.00,0.0,WeatherDisplay:10.37,2013-01-12 20:15:00,
2013-01-12 12:20:00,51.6,39.8,30.19,WSW,248,0.0,0.0,64,0.00,OVC,,0.00,0.0,WeatherDisplay:10.37,2013-01-12 20:20:00,
2013-01-12 12:25:00,51.4,38.8,30.19,WSW,248,0.0,0.0,62,0.00,OVC,,0.00,0.0,WeatherDisplay:10.37,2013-01-12 20:25:00,
2013-01-12 12:30:00,51.6,39.4,30.18,WSW,248,0.0,0.0,63,0.00,OVC,,0.00,0.0,WeatherDisplay:10.37,2013-01-12 20:30:00,
2013-01-12 12:35:00,51.8,39.6,30.18,WSW,248,0.0,0.0,63,0.00,OVC,,0.00,0.0,WeatherDisplay:10.37,2013-01-12 20:35:00,
2013-01-12 12:40:00,52.0,39.8,30.18,WSW,248,0.0,0.0,63,0.00,OVC,,0.00,0.0,WeatherDisplay:10.37,2013-01-12 20:40:00,
2013-01-12 12:46:00,52.0,39.8,30.17,WSW,248,0.0,0.0,63,0.00,OVC,,0.00,0.0,WeatherDisplay:10.37,2013-01-12 20:46:00,
2013-01-12 12:51:00,51.8,39.2,30.17,WSW,248,0.0,0.0,62,0.00,OVC,,0.00,0.0,WeatherDisplay:10.37,2013-01-12 20:51:00,
2013-01-12 12:56:00,52.0,39.4,30.17,WSW,248,0.0,0.0,62,0.00,OVC,,0.00,0.0,WeatherDisplay:10.37,2013-01-12 20:56:00,
2013-01-12 13:02:00,52.2,39.5,30.17,WSW,248,0.0,0.0,62,0.00,OVC,,0.00,0.0,WeatherDisplay:10.37,2013-01-12 21:02:00,
2013-01-12 13:07:00,52.2,39.1,30.17,WSW,248,0.0,0.0,61,0.00,OVC,,0.00,0.0,WeatherDisplay:10.37,2013-01-12 21:07:00,
2013-01-12 13:12:00,52.2,39.1,30.17,WSW,248,0.0,0.0,61,0.00,OVC,,0.00,0.0,WeatherDisplay:10.37,2013-01-12 21:12:00,
2013-01-12 13:17:00,52.2,39.1,30.17,WSW,248,0.0,0.0,61,0.00,OVC,,0.00,0.0,WeatherDisplay:10.37,2013-01-12 21:17:00,
2013-01-12 13:22:00,52.2,39.1,30.17,WSW,248,0.0,0.0,61,0.00,OVC,,0.00,0.0,WeatherDisplay:10.37,2013-01-12 21:22:00,
2013-01-12 13:28:00,52.3,39.3,30.16,WSW,248,0.0,0.0,61,0.00,OVC,,0.00,0.0,WeatherDisplay:10.37,2013-01-12 21:28:00,
2013-01-12 13:33:00,52.5,39.5,30.16,WSW,248,0.0,0.0,61,0.00,OVC,,0.00,0.0,WeatherDisplay:10.37,2013-01-12 21:33:00,
2013-01-12 13:38:00,53.1,39.5,30.16,WSW,248,0.0,0.0,60,0.00,OVC,,0.00,0.0,WeatherDisplay:10.37,2013-01-12 21:38:00,
2013-01-12 13:43:00,52.7,38.8,30.16,WSW,248,0.0,0.0,59,0.00,OVC,,0.00,0.0,WeatherDisplay:10.37,2013-01-12 21:43:00,
2013-01-12 13:48:00,52.9,38.5,30.15,WSW,248,0.0,0.0,58,0.00,OVC,,0.00,0.0,WeatherDisplay:10.37,2013-01-12 21:48:00,
2013-01-12 13:54:00,53.1,39.1,30.15,WSW,248,0.0,0.0,59,0.00,OVC,,0.00,0.0,WeatherDisplay:10.37,2013-01-12 21:54:00,
2013-01-12 13:59:00,52.9,38.9,30.15,WSW,248,0.0,0.0,59,0.00,OVC,,0.00,0.0,WeatherDisplay:10.37,2013-01-12 21:59:00,
2013-01-12 14:04:00,53.1,39.1,30.15,WSW,248,0.0,0.0,59,0.00,OVC,,0.00,0.0,WeatherDisplay:10.37,2013-01-12 22:04:00,
2013-01-12 14:09:00,53.1,39.1,30.15,WSW,248,0.0,0.0,59,0.00,OVC,,0.00,0.0,WeatherDisplay:10.37,2013-01-12 22:09:00,
2013-01-12 14:14:00,52.7,38.3,30.15,WSW,248,0.0,0.0,58,0.00,OVC,,0.00,0.0,WeatherDisplay:10.37,2013-01-12 22:14:00,
2013-01-12 14:20:00,52.7,38.8,30.15,WSW,248,0.0,0.0,59,0.00,OVC,,0.00,0.0,WeatherDisplay:10.37,2013-01-12 22:20:00,
2013-01-12 14:25:00,52.7,39.2,30.15,WSW,248,0.0,0.0,60,0.00,OVC,,0.00,0.0,WeatherDisplay:10.37,2013-01-12 22:25:00,
2013-01-12 14:30:00,52.7,39.2,30.16,WSW,248,0.0,0.0,60,0.00,OVC,,0.00,0.0,WeatherDisplay:10.37,2013-01-12 22:30:00,
2013-01-12 14:35:00,52.5,39.0,30.16,WSW,248,0.0,0.0,60,0.00,OVC,,0.00,0.0,WeatherDisplay:10.37,2013-01-12 22:35:00,
2013-01-12 14:40:00,52.3,38.9,30.16,WSW,248,0.0,0.0,60,0.00,OVC,,0.00,0.0,WeatherDisplay:10.37,2013-01-12 22:40:00,
2013-01-12 14:45:00,52.2,39.1,30.16,WSW,248,0.0,0.0,61,0.00,OVC,,0.00,0.0,WeatherDisplay:10.37,2013-01-12 22:45:00,
2013-01-12 14:50:00,52.3,39.3,30.14,WSW,248,0.0,0.0,61,0.00,OVC,,0.00,0.0,WeatherDisplay:10.37,2013-01-12 22:50:00,
2013-01-12 14:55:00,52.5,39.9,30.14,WSW,248,0.0,0.0,62,0.00,OVC,,0.00,0.0,WeatherDisplay:10.37,2013-01-12 22:55:00,
2013-01-12 15:00:00,52.2,39.1,30.14,WSW,248,0.0,0.0,61,0.00,OVC,,0.00,0.0,WeatherDisplay:10.37,2013-01-12 23:00:00,
2013-01-12 15:06:00,52.3,39.7,30.15,WSW,248,0.0,0.0,62,0.00,OVC,,0.00,0.0,WeatherDisplay:10.37,2013-01-12 23:06:00,
2013-01-12 15:11:00,52.3,39.7,30.15,WSW,248,0.0,0.0,62,0.00,OVC,,0.00,0.0,WeatherDisplay:10.37,2013-01-12 23:11:00,
2013-01-12 15:16:00,52.2,39.5,30.15,WSW,248,0.0,0.0,62,0.00,OVC,,0.00,0.0,WeatherDisplay:10.37,2013-01-12 23:16:00,
2013-01-12 15:22:00,52.2,39.5,30.15,WSW,248,0.0,0.0,62,0.00,OVC,,0.00,0.0,WeatherDisplay:10.37,2013-01-12 23:22:00,
2013-01-12 15:27:00,52.2,39.9,30.14,WSW,248,0.0,0.0,63,0.00,OVC,,0.00,0.0,WeatherDisplay:10.37,2013-01-12 23:27:00,
2013-01-12 15:32:00,52.2,39.5,30.14,WSW,248,0.0,0.0,62,0.00,OVC,,0.00,0.0,WeatherDisplay:10.37,2013-01-12 23:32:00,
2013-01-12 15:37:00,52.0,39.4,30.14,WSW,248,0.0,0.0,62,0.00,OVC,,0.00,0.0,WeatherDisplay:10.37,2013-01-12 23:37:00,
2013-01-12 15:42:00,52.0,39.8,30.14,WSW,248,0.0,0.0,63,0.00,OVC,,0.00,0.0,WeatherDisplay:10.37,2013-01-12 23:42:00,
2013-01-12 15:47:00,51.8,39.2,30.14,WSW,248,0.0,0.0,62,0.00,OVC,,0.00,0.0,WeatherDisplay:10.37,2013-01-12 23:47:00,
2013-01-12 15:53:00,51.8,39.2,30.14,WSW,248,0.0,0.0,62,0.00,OVC,,0.00,0.0,WeatherDisplay:10.37,2013-01-12 23:53:00,
2013-01-12 15:58:00,51.8,39.2,30.14,WSW,248,0.0,0.0,62,0.00,OVC,,0.00,0.0,WeatherDisplay:10.37,2013-01-12 23:58:00,
2013-01-12 16:03:00,51.8,39.2,30.14,WSW,248,0.0,0.0,62,0.00,OVC,,0.00,0.0,WeatherDisplay:10.37,2013-01-13 00:03:00,
2013-01-12 16:08:00,51.6,39.0,30.14,WSW,248,0.0,0.0,62,0.00,OVC,,0.00,0.0,WeatherDisplay:10.37,2013-01-13 00:08:00,
2013-01-12 16:13:00,51.6,39.0,30.14,WSW,248,0.0,0.0,62,0.00,OVC,,0.00,0.0,WeatherDisplay:10.37,2013-01-13 00:13:00,
2013-01-12 16:18:00,51.3,38.7,30.14,WSW,248,0.0,0.0,62,0.00,OVC,,0.00,0.0,WeatherDisplay:10.37,2013-01-13 00:18:00,
2013-01-12 16:23:00,51.1,38.5,30.14,WSW,248,0.0,0.0,62,0.00,OVC,,0.00,0.0,WeatherDisplay:10.37,2013-01-13 00:23:00,
2013-01-12 16:28:00,50.7,38.2,30.13,WSW,248,0.0,0.0,62,0.00,OVC,,0.00,0.0,WeatherDisplay:10.37,2013-01-13 00:28:00,
2013-01-12 16:33:00,50.5,38.4,30.13,WSW,248,0.0,0.0,63,0.00,OVC,,0.00,0.0,WeatherDisplay:10.37,2013-01-13 00:33:00,
2013-01-12 16:39:00,50.5,38.4,30.13,WSW,248,0.0,0.0,63,0.00,OVC,,0.00,0.0,WeatherDisplay:10.37,2013-01-13 00:39:00,
2013-01-12 16:44:00,50.2,38.5,30.13,WSW,248,0.0,0.0,64,0.00,OVC,,0.00,0.0,WeatherDisplay:10.37,2013-01-13 00:44:00,
2013-01-12 16:49:00,50.2,38.5,30.14,WSW,248,0.0,0.0,64,0.00,OVC,,0.00,0.0,WeatherDisplay:10.37,2013-01-13 00:49:00,
2013-01-12 16:54:00,50.0,38.3,30.14,WSW,248,0.0,0.0,64,0.00,OVC,,0.00,0.0,WeatherDisplay:10.37,2013-01-13 00:54:00,
2013-01-12 16:59:00,49.6,38.3,30.14,WSW,248,0.0,0.0,65,0.00,OVC,,0.00,0.0,WeatherDisplay:10.37,2013-01-13 00:59:00,
2013-01-12 17:05:00,49.8,38.5,30.14,WSW,248,0.0,0.0,65,0.00,OVC,,0.00,0.0,WeatherDisplay:10.37,2013-01-13 01:05:00,
2013-01-12 17:10:00,49.3,38.4,30.14,WSW,248,0.0,0.0,66,0.00,OVC,,0.00,0.0,WeatherDisplay:10.37,2013-01-13 01:10:00,
2013-01-12 17:15:00,48.9,38.1,30.14,WSW,248,0.0,0.0,66,0.00,OVC,,0.00,0.0,WeatherDisplay:10.37,2013-01-13 01:15:00,
2013-01-12 17:20:00,49.1,38.6,30.14,WSW,248,0.0,0.0,67,0.00,OVC,,0.00,0.0,WeatherDisplay:10.37,2013-01-13 01:20:00,
2013-01-12 17:25:00,48.7,38.3,30.14,WSW,248,0.0,0.0,67,0.00,OVC,,0.00,0.0,WeatherDisplay:10.37,2013-01-13 01:25:00,
2013-01-12 17:30:00,48.7,38.3,30.14,WSW,248,0.0,0.0,67,0.00,OVC,,0.00,0.0,WeatherDisplay:10.37,2013-01-13 01:30:00,
2013-01-12 17:36:00,48.6,38.1,30.14,WSW,248,0.0,0.0,67,0.00,OVC,,0.00,0.0,WeatherDisplay:10.37,2013-01-13 01:36:00,
2013-01-12 17:41:00,48.2,38.1,30.14,WSW,248,0.0,0.0,68,0.00,OVC,,0.00,0.0,WeatherDisplay:10.37,2013-01-13 01:41:00,
2013-01-12 17:46:00,48.0,38.0,30.14,WSW,248,0.0,0.0,68,0.00,CLR,,0.00,0.0,WeatherDisplay:10.37,2013-01-13 01:46:00,
2013-01-12 17:51:00,47.8,37.8,30.14,WSW,248,0.0,0.0,68,0.00,CLR,,0.00,0.0,WeatherDisplay:10.37,2013-01-13 01:51:00,
2013-01-12 17:56:00,47.7,37.6,30.14,WSW,248,0.0,0.0,68,0.00,CLR,,0.00,0.0,WeatherDisplay:10.37,2013-01-13 01:56:00,
2013-01-12 18:02:00,47.7,38.0,30.14,WSW,248,0.0,0.0,69,0.00,CLR,,0.00,0.0,WeatherDisplay:10.37,2013-01-13 02:02:00,
2013-01-12 18:07:00,47.3,37.6,30.15,WSW,248,0.0,0.0,69,0.00,CLR,,0.00,0.0,WeatherDisplay:10.37,2013-01-13 02:07:00,
2013-01-12 18:12:00,47.1,37.8,30.15,WSW,248,0.0,0.0,70,0.00,CLR,,0.00,0.0,WeatherDisplay:10.37,2013-01-13 02:12:00,
2013-01-12 18:17:00,46.9,37.7,30.15,WSW,248,0.0,0.0,70,0.00,CLR,,0.00,0.0,WeatherDisplay:10.37,2013-01-13 02:17:00,
2013-01-12 18:22:00,46.8,37.5,30.15,WSW,248,0.0,0.0,70,0.00,CLR,,0.00,0.0,WeatherDisplay:10.37,2013-01-13 02:22:00,
2013-01-12 18:27:00,46.4,37.5,30.16,WSW,248,0.0,0.0,71,0.00,CLR,,0.00,0.0,WeatherDisplay:10.37,2013-01-13 02:27:00,
2013-01-12 18:32:00,46.2,37.3,30.16,WSW,248,0.0,0.0,71,0.00,CLR,,0.00,0.0,WeatherDisplay:10.37,2013-01-13 02:32:00,
2013-01-12 18:38:00,46.0,37.5,30.16,WSW,248,0.0,0.0,72,0.00,CLR,,0.00,0.0,WeatherDisplay:10.37,2013-01-13 02:38:00,
2013-01-12 18:43:00,45.9,37.3,30.16,WSW,248,0.0,0.0,72,0.00,CLR,,0.00,0.0,WeatherDisplay:10.37,2013-01-13 02:43:00,
2013-01-12 18:48:00,45.9,37.3,30.16,WSW,248,0.0,0.0,72,0.00,CLR,,0.00,0.0,WeatherDisplay:10.37,2013-01-13 02:48:00,
2013-01-12 18:54:00,45.7,37.2,30.16,WSW,248,0.0,0.0,72,0.00,CLR,,0.00,0.0,WeatherDisplay:10.37,2013-01-13 02:54:00,
2013-01-12 18:59:00,45.7,37.2,30.16,WSW,248,0.0,0.0,72,0.00,CLR,,0.00,0.0,WeatherDisplay:10.37,2013-01-13 02:59:00,
2013-01-12 19:04:00,45.7,37.5,30.16,WSW,248,0.0,0.0,73,0.00,CLR,,0.00,0.0,WeatherDisplay:10.37,2013-01-13 03:04:00,
2013-01-12 19:09:00,45.7,37.5,30.16,WSW,248,0.0,0.0,73,0.00,CLR,,0.00,0.0,WeatherDisplay:10.37,2013-01-13 03:09:00,
2013-01-12 19:14:00,45.7,37.5,30.16,WSW,248,0.0,0.0,73,0.00,CLR,,0.00,0.0,WeatherDisplay:10.37,2013-01-13 03:14:00,
2013-01-12 19:20:00,45.7,37.5,30.16,WSW,248,0.0,0.0,73,0.00,CLR,,0.00,0.0,WeatherDisplay:10.37,2013-01-13 03:20:00,
2013-01-12 19:25:00,45.7,37.9,30.16,WSW,248,0.0,0.0,74,0.00,CLR,,0.00,0.0,WeatherDisplay:10.37,2013-01-13 03:25:00,
2013-01-12 19:30:00,45.7,37.9,30.16,WSW,248,0.0,0.0,74,0.00,CLR,,0.00,0.0,WeatherDisplay:10.37,2013-01-13 03:30:00,
2013-01-12 19:35:00,45.9,38.0,30.16,WSW,248,0.0,0.0,74,0.00,CLR,,0.00,0.0,WeatherDisplay:10.37,2013-01-13 03:35:00,
2013-01-12 19:40:00,45.9,38.4,30.16,WSW,248,0.0,0.0,75,0.00,CLR,,0.00,0.0,WeatherDisplay:10.37,2013-01-13 03:40:00,
2013-01-12 19:45:00,46.2,39.1,30.15,WSW,248,0.0,0.0,76,0.00,CLR,,0.00,0.0,WeatherDisplay:10.37,2013-01-13 03:45:00,
2013-01-12 19:51:00,46.0,38.6,30.15,WSW,248,0.0,0.0,75,0.00,CLR,,0.00,0.0,WeatherDisplay:10.37,2013-01-13 03:51:00,
2013-01-12 19:56:00,45.9,38.4,30.15,WSW,248,0.0,0.0,75,0.00,CLR,,0.00,0.0,WeatherDisplay:10.37,2013-01-13 03:56:00,
2013-01-12 20:01:00,45.9,38.4,30.15,WSW,248,0.0,0.0,75,0.00,CLR,,0.00,0.0,WeatherDisplay:10.37,2013-01-13 04:01:00,
2013-01-12 20:06:00,45.9,38.0,30.14,WSW,248,0.0,0.0,74,0.00,CLR,,0.00,0.0,WeatherDisplay:10.37,2013-01-13 04:06:00,
2013-01-12 20:11:00,45.7,37.9,30.14,WSW,248,0.0,0.0,74,0.00,CLR,,0.00,0.0,WeatherDisplay:10.37,2013-01-13 04:11:00,
2013-01-12 20:16:00,45.7,37.5,30.14,WSW,248,0.0,0.0,73,0.00,CLR,,0.00,0.0,WeatherDisplay:10.37,2013-01-13 04:16:00,
2013-01-12 20:21:00,45.9,37.3,30.14,WSW,248,0.0,0.0,72,0.00,CLR,,0.00,0.0,WeatherDisplay:10.37,2013-01-13 04:21:00,
2013-01-12 20:26:00,45.7,36.8,30.15,WSW,248,0.0,0.0,71,0.00,CLR,,0.00,0.0,WeatherDisplay:10.37,2013-01-13 04:26:00,
2013-01-12 20:32:00,45.5,37.0,30.15,WSW,248,0.0,0.0,72,0.00,CLR,,0.00,0.0,WeatherDisplay:10.37,2013-01-13 04:32:00,
2013-01-12 20:37:00,45.5,37.7,30.15,WSW,248,0.0,0.0,74,0.00,CLR,,0.00,0.0,WeatherDisplay:10.37,2013-01-13 04:37:00,
2013-01-12 20:42:00,45.5,37.7,30.15,WSW,248,0.0,0.0,74,0.00,CLR,,0.00,0.0,WeatherDisplay:10.37,2013-01-13 04:42:00,
2013-01-12 20:47:00,45.3,37.5,30.15,WSW,248,0.0,0.0,74,0.00,CLR,,0.00,0.0,WeatherDisplay:10.37,2013-01-13 04:47:00,
2013-01-12 20:52:00,45.5,37.3,30.15,WSW,248,0.0,0.0,73,0.00,CLR,,0.00,0.0,WeatherDisplay:10.37,2013-01-13 04:52:00,
2013-01-12 20:58:00,45.1,37.0,30.15,WSW,248,0.0,0.0,73,0.00,CLR,,0.00,0.0,WeatherDisplay:10.37,2013-01-13 04:58:00,
2013-01-12 21:02:00,45.1,37.0,30.15,WSW,248,0.0,0.0,73,0.00,CLR,,0.00,0.0,WeatherDisplay:10.37,2013-01-13 05:02:00,
2013-01-12 21:03:00,45.1,37.0,30.15,WSW,248,0.0,0.0,73,0.00,CLR,,0.00,0.0,WeatherDisplay:10.37,2013-01-13 05:03:00,
2013-01-12 21:08:00,45.0,36.5,30.15,WSW,248,0.0,0.0,72,0.00,CLR,,0.00,0.0,WeatherDisplay:10.37,2013-01-13 05:08:00,
2013-01-12 21:12:00,44.8,36.3,30.15,WSW,248,0.0,0.0,72,0.00,CLR,,0.00,0.0,WeatherDisplay:10.37,2013-01-13 05:12:00,
2013-01-12 21:17:00,44.8,36.3,30.15,WSW,248,0.0,0.0,72,0.00,CLR,,0.00,0.0,WeatherDisplay:10.37,2013-01-13 05:17:00,
2013-01-12 21:22:00,44.8,36.7,30.15,WSW,248,0.0,0.0,73,0.00,CLR,,0.00,0.0,WeatherDisplay:10.37,2013-01-13 05:22:00,
2013-01-12 21:27:00,44.4,36.6,30.14,WSW,248,0.0,0.0,74,0.00,CLR,,0.00,0.0,WeatherDisplay:10.37,2013-01-13 05:27:00,
2013-01-12 21:33:00,44.4,36.6,30.14,WSW,248,0.0,0.0,74,0.00,CLR,,0.00,0.0,WeatherDisplay:10.37,2013-01-13 05:33:00,
2013-01-12 21:38:00,44.1,36.3,30.14,WSW,248,0.0,0.0,74,0.00,CLR,,0.00,0.0,WeatherDisplay:10.37,2013-01-13 05:38:00,
2013-01-12 21:43:00,43.9,35.8,30.14,WSW,248,0.0,0.0,73,0.00,CLR,,0.00,0.0,WeatherDisplay:10.37,2013-01-13 05:43:00,
2013-01-12 21:48:00,43.9,35.8,30.14,WSW,248,0.0,0.0,73,0.00,CLR,,0.00,0.0,WeatherDisplay:10.37,2013-01-13 05:48:00,
2013-01-12 21:53:00,43.7,35.6,30.14,WSW,248,0.0,0.0,73,0.00,CLR,,0.00,0.0,WeatherDisplay:10.37,2013-01-13 05:53:00,
2013-01-12 21:58:00,43.5,35.1,30.14,WSW,248,0.0,0.0,72,0.00,CLR,,0.00,0.0,WeatherDisplay:10.37,2013-01-13 05:58:00,
2013-01-12 22:03:00,43.3,34.9,30.14,WSW,248,0.0,0.0,72,0.00,CLR,,0.00,0.0,WeatherDisplay:10.37,2013-01-13 06:03:00,
2013-01-12 22:09:00,43.2,34.7,30.15,WSW,248,0.0,0.0,72,0.00,CLR,,0.00,0.0,WeatherDisplay:10.37,2013-01-13 06:09:00,
2013-01-12 22:14:00,43.0,34.6,30.15,WSW,248,0.0,0.0,72,0.00,CLR,,0.00,0.0,WeatherDisplay:10.37,2013-01-13 06:14:00,
2013-01-12 22:19:00,42.8,34.4,30.15,WSW,248,0.0,0.0,72,0.00,CLR,,0.00,0.0,WeatherDisplay:10.37,2013-01-13 06:19:00,
2013-01-12 22:24:00,42.8,34.0,30.15,WSW,248,0.0,0.0,71,0.00,CLR,,0.00,0.0,WeatherDisplay:10.37,2013-01-13 06:24:00,
2013-01-12 22:30:00,42.6,34.6,30.15,WSW,248,0.0,0.0,73,0.00,CLR,,0.00,0.0,WeatherDisplay:10.37,2013-01-13 06:30:00,
2013-01-12 22:35:00,42.6,34.6,30.15,WSW,248,0.0,0.0,73,0.00,CLR,,0.00,0.0,WeatherDisplay:10.37,2013-01-13 06:35:00,
2013-01-12 22:40:00,42.3,34.6,30.15,WSW,248,0.0,0.0,74,0.00,CLR,,0.00,0.0,WeatherDisplay:10.37,2013-01-13 06:40:00,
2013-01-12 22:45:00,42.1,34.4,30.15,WSW,248,0.0,0.0,74,0.00,CLR,,0.00,0.0,WeatherDisplay:10.37,2013-01-13 06:45:00,
2013-01-12 22:50:00,41.7,34.0,30.16,WSW,248,0.0,0.0,74,0.00,CLR,,0.00,0.0,WeatherDisplay:10.37,2013-01-13 06:50:00,
2013-01-12 22:55:00,41.7,34.0,30.16,WSW,248,0.0,0.0,74,0.00,CLR,,0.00,0.0,WeatherDisplay:10.37,2013-01-13 06:55:00,
2013-01-12 23:00:00,41.7,34.0,30.16,WSW,248,0.0,0.0,74,0.00,CLR,,0.00,0.0,WeatherDisplay:10.37,2013-01-13 07:00:00,
2013-01-12 23:06:00,41.5,33.9,30.17,WSW,248,0.0,0.0,74,0.00,CLR,,0.00,0.0,WeatherDisplay:10.37,2013-01-13 07:06:00,
2013-01-12 23:11:00,41.4,33.4,30.17,WSW,248,0.0,0.0,73,0.00,CLR,,0.00,0.0,WeatherDisplay:10.37,2013-01-13 07:11:00,
2013-01-12 23:16:00,41.2,33.2,30.17,WSW,248,0.0,0.0,73,0.00,CLR,,0.00,0.0,WeatherDisplay:10.37,2013-01-13 07:16:00,
2013-01-12 23:21:00,41.0,33.0,30.17,WSW,248,0.0,0.0,73,0.00,CLR,,0.00,0.0,WeatherDisplay:10.37,2013-01-13 07:21:00,
2013-01-12 23:26:00,40.8,33.2,30.18,WSW,248,0.0,0.0,74,0.00,CLR,,0.00,0.0,WeatherDisplay:10.37,2013-01-13 07:26:00,
2013-01-12 23:31:00,40.6,33.0,30.18,WSW,248,0.0,0.0,74,0.00,CLR,,0.00,0.0,WeatherDisplay:10.37,2013-01-13 07:31:00,
2013-01-12 23:37:00,40.8,33.8,30.18,WSW,248,0.0,0.0,76,0.00,CLR,,0.00,0.0,WeatherDisplay:10.37,2013-01-13 07:37:00,
2013-01-12 23:42:00,40.6,33.7,30.18,WSW,248,0.0,0.0,76,0.00,CLR,,0.00,0.0,WeatherDisplay:10.37,2013-01-13 07:42:00,
2013-01-12 23:47:00,40.6,34.0,30.18,WSW,248,0.0,0.0,77,0.00,CLR,,0.00,0.0,WeatherDisplay:10.37,2013-01-13 07:47:00,
2013-01-12 23:52:00,40.8,34.5,30.18,WSW,248,0.0,0.0,78,0.00,CLR,,0.00,0.0,WeatherDisplay:10.37,2013-01-13 07:52:00,
2013-01-12 23:57:00,40.6,34.3,30.18,WSW,248,0.0,0.0,78,0.00,CLR,,0.00,0.0,WeatherDisplay:10.37,2013-01-13 07:57:00,